• In Germany
  • List of Countries
  • For 7 days
  • Water Temperature
  • Satellite Maps
  • Weather Map
  • Weather Widgets
  • user-avatar
    Login

    Hourly Weather Eibenstock

    Today, 21 June, Thursday

    Time Temperature Precipitation Wind Pressure Humidity
    00:00 +18°C° 0 mm 1 mps 706 mmHg 90%
    01:00 +17°C° 0 mm 2 mps 705 mmHg 91%
    02:00 +17°C° 0 mm 2 mps 705 mmHg 92%
    03:00 +16°C° 0 mm 2 mps 705 mmHg 92%
    04:00 +16°C° 0 mm 2 mps 704 mmHg 93%
    05:00 +17°C° 0 mm 2 mps 704 mmHg 88%
    06:00 +19°C° 0 mm 2 mps 704 mmHg 82%
    07:00 +21°C° 0 mm 3 mps 704 mmHg 75%
    08:00 +22°C° 0.2 mm 4 mps 704 mmHg 70%
    09:00 +23°C° 0.2 mm 5 mps 703 mmHg 66%
    10:00 +24°C° 0.2 mm 6 mps 703 mmHg 62%
    11:00 +24°C° 0.1 mm 6 mps 703 mmHg 59%
    12:00 +24°C° 0.1 mm 7 mps 703 mmHg 57%
    13:00 +24°C° 0 mm 7 mps 703 mmHg 54%
    14:00 +21°C° 0.5 mm 7 mps 703 mmHg 65%
    15:00 +17°C° 0.5 mm 6 mps 703 mmHg 76%
    16:00 +14°C° 0.5 mm 6 mps 703 mmHg 86%
    17:00 +13°C° 0 mm 6 mps 704 mmHg 81%
    18:00 +13°C° 0 mm 5 mps 704 mmHg 76%
    19:00 +12°C° 0 mm 5 mps 705 mmHg 71%
    20:00 +11°C° 0 mm 4 mps 705 mmHg 72%
    21:00 +8°C° 0 mm 4 mps 705 mmHg 73%
    22:00 +8°C° 0 mm 3 mps 706 mmHg 75%
    23:00 +7°C° 0 mm 3 mps 706 mmHg 78%

    Tomorrow, 22 June, Friday

    Time Temperature Precipitation Wind Pressure Humidity
    00:00 +7°C° 0 mm 3 mps 706 mmHg 82%
    01:00 +5°C° 0 mm 3 mps 707 mmHg 85%
    02:00 +5°C° 0 mm 4 mps 707 mmHg 86%
    03:00 +4°C° 0 mm 4 mps 707 mmHg 88%
    04:00 +4°C° 0 mm 4 mps 707 mmHg 89%
    05:00 +5°C° 0 mm 5 mps 707 mmHg 85%
    06:00 +5°C° 0 mm 5 mps 707 mmHg 81%
    07:00 +5°C° 0 mm 6 mps 707 mmHg 76%
    08:00 +7°C° 0.1 mm 6 mps 707 mmHg 77%
    09:00 +7°C° 0.1 mm 6 mps 707 mmHg 78%
    10:00 +7°C° 0.1 mm 6 mps 707 mmHg 78%
    11:00 +7°C° 0.5 mm 6 mps 707 mmHg 81%
    12:00 +7°C° 0.5 mm 6 mps 707 mmHg 84%
    13:00 +8°C° 0.5 mm 6 mps 707 mmHg 87%
    14:00 +8°C° 0.2 mm 6 mps 707 mmHg 84%
    15:00 +9°C° 0.2 mm 6 mps 707 mmHg 80%
    16:00 +10°C° 0.2 mm 5 mps 707 mmHg 77%
    17:00 +10°C° 0.2 mm 5 mps 707 mmHg 79%
    18:00 +10°C° 0.2 mm 5 mps 708 mmHg 80%
    19:00 +11°C° 0.2 mm 4 mps 708 mmHg 81%
    20:00 +10°C° 0.1 mm 4 mps 708 mmHg 85%
    21:00 +8°C° 0.1 mm 4 mps 708 mmHg 89%
    22:00 +7°C° 0.1 mm 4 mps 708 mmHg 93%
    23:00 +6°C° 0 mm 4 mps 708 mmHg 94%

    Day after tomorrow, 23 June, Saturday

    Time Temperature Precipitation Wind Pressure Humidity
    00:00 +6°C° 0 mm 4 mps 708 mmHg 94%
    01:00 +5°C° 0 mm 4 mps 709 mmHg 95%
    02:00 +5°C° 0.1 mm 4 mps 709 mmHg 95%
    03:00 +5°C° 0.1 mm 4 mps 709 mmHg 95%
    04:00 +5°C° 0.1 mm 4 mps 709 mmHg 94%
    05:00 +6°C° 0 mm 4 mps 709 mmHg 92%
    06:00 +6°C° 0 mm 5 mps 709 mmHg 89%
    07:00 +6°C° 0 mm 5 mps 709 mmHg 87%
    08:00 +7°C° 0 mm 5 mps 709 mmHg 83%
    09:00 +8°C° 0 mm 5 mps 709 mmHg 78%
    10:00 +9°C° 0 mm 5 mps 709 mmHg 74%
    11:00 +9°C° 0.2 mm 5 mps 709 mmHg 78%
    12:00 +9°C° 0.2 mm 5 mps 709 mmHg 81%
    13:00 +8°C° 0.2 mm 5 mps 709 mmHg 85%
    14:00 +9°C° 0.1 mm 5 mps 709 mmHg 83%
    15:00 +9°C° 0.1 mm 5 mps 709 mmHg 81%
    16:00 +9°C° 0.1 mm 5 mps 709 mmHg 79%
    17:00 +9°C° 0.1 mm 5 mps 708 mmHg 80%
    18:00 +10°C° 0.1 mm 4 mps 708 mmHg 82%
    19:00 +8°C° 0.1 mm 4 mps 708 mmHg 84%
    20:00 +8°C° 0.1 mm 4 mps 708 mmHg 87%
    21:00 +8°C° 0.1 mm 3 mps 708 mmHg 89%
    22:00 +8°C° 0.1 mm 3 mps 708 mmHg 92%
    23:00 +8°C° 0.1 mm 3 mps 708 mmHg 93%

    24 June, Sunday

    Time Temperature Precipitation Wind Pressure Humidity
    00:00 +8°C° 0.1 mm 3 mps 708 mmHg 94%
    01:00 +7°C° 0.1 mm 3 mps 708 mmHg 95%
    02:00 +7°C° 0.1 mm 3 mps 708 mmHg 95%
    03:00 +8°C° 0.1 mm 3 mps 707 mmHg 95%
    04:00 +8°C° 0.1 mm 2 mps 707 mmHg 96%
    05:00 +8°C° 0.1 mm 2 mps 707 mmHg 95%
    06:00 +8°C° 0.1 mm 2 mps 707 mmHg 95%
    07:00 +8°C° 0.1 mm 3 mps 707 mmHg 95%
    08:00 +9°C° 0.1 mm 3 mps 708 mmHg 93%
    09:00 +10°C° 0.1 mm 3 mps 708 mmHg 91%
    10:00 +10°C° 0.1 mm 3 mps 708 mmHg 89%
    11:00 +11°C° 0.2 mm 3 mps 708 mmHg 87%
    12:00 +11°C° 0.2 mm 3 mps 708 mmHg 85%
    13:00 +12°C° 0.2 mm 3 mps 708 mmHg 83%
    14:00 +12°C° 0.2 mm 3 mps 708 mmHg 80%
    15:00 +13°C° 0.2 mm 3 mps 707 mmHg 77%
    16:00 +13°C° 0.2 mm 3 mps 707 mmHg 74%
    17:00 +13°C° 0.1 mm 3 mps 707 mmHg 77%
    18:00 +12°C° 0.1 mm 3 mps 707 mmHg 80%
    19:00 +12°C° 0.1 mm 3 mps 707 mmHg 83%
    20:00 +12°C° 0.1 mm 2 mps 707 mmHg 87%
    21:00 +10°C° 0.1 mm 2 mps 707 mmHg 91%
    22:00 +9°C° 0.1 mm 1 mps 707 mmHg 96%
    23:00 +9°C° 0 mm 1 mps 707 mmHg 96%

    25 June, Monday

    Time Temperature Precipitation Wind Pressure Humidity
    00:00 +9°C° 0 mm 1 mps 707 mmHg 96%
    01:00 +9°C° 0 mm 1 mps 707 mmHg 97%
    02:00 +8°C° 0 mm 1 mps 707 mmHg 97%
    03:00 +8°C° 0 mm 1 mps 707 mmHg 97%
    04:00 +8°C° 0 mm 1 mps 707 mmHg 98%
    05:00 +9°C° 0 mm 1 mps 707 mmHg 96%
    06:00 +10°C° 0 mm 1 mps 707 mmHg 94%
    07:00 +11°C° 0 mm 1 mps 708 mmHg 91%
    08:00 +12°C° 0.1 mm 1 mps 708 mmHg 86%
    09:00 +14°C° 0.1 mm 2 mps 708 mmHg 80%
    10:00 +15°C° 0.1 mm 2 mps 709 mmHg 74%
    11:00 +16°C° 0.1 mm 2 mps 709 mmHg 70%
    12:00 +17°C° 0.1 mm 2 mps 709 mmHg 65%
    13:00 +18°C° 0.1 mm 2 mps 709 mmHg 60%
    14:00 +18°C° 0.2 mm 2 mps 709 mmHg 61%
    15:00 +18°C° 0.2 mm 3 mps 709 mmHg 61%
    16:00 +18°C° 0.2 mm 3 mps 709 mmHg 62%
    17:00 +17°C° 0.2 mm 3 mps 709 mmHg 67%
    18:00 +17°C° 0.2 mm 2 mps 709 mmHg 73%
    19:00 +16°C° 0.2 mm 2 mps 709 mmHg 78%
    20:00 +14°C° 0 mm 2 mps 709 mmHg 82%
    21:00 +12°C° 0 mm 1 mps 709 mmHg 86%
    22:00 +11°C° 0 mm 1 mps 709 mmHg 90%
    23:00 +10°C° 0 mm 1 mps 709 mmHg 90%

    26 June, Tuesday

    Time Temperature Precipitation Wind Pressure Humidity
    00:00 +10°C° 0 mm 1 mps 709 mmHg 90%
    01:00 +9°C° 0 mm 1 mps 709 mmHg 90%
    02:00 +9°C° 0 mm 1 mps 708 mmHg 90%
    03:00 +9°C° 0 mm 1 mps 708 mmHg 90%
    04:00 +9°C° 0 mm 1 mps 708 mmHg 90%
    05:00 +10°C° 0 mm 1 mps 709 mmHg 86%
    06:00 +12°C° 0 mm 1 mps 709 mmHg 81%
    07:00 +14°C° 0 mm 1 mps 710 mmHg 76%
    08:00 +16°C° 0 mm 1 mps 710 mmHg 69%
    09:00 +17°C° 0 mm 2 mps 710 mmHg 62%
    10:00 +19°C° 0 mm 2 mps 710 mmHg 54%
    11:00 +19°C° 0.1 mm 2 mps 710 mmHg 53%
    12:00 +20°C° 0.1 mm 2 mps 710 mmHg 52%
    13:00 +20°C° 0.1 mm 2 mps 710 mmHg 51%
    14:00 +20°C° 0.1 mm 2 mps 709 mmHg 54%
    15:00 +20°C° 0.1 mm 2 mps 709 mmHg 57%
    16:00 +20°C° 0.1 mm 3 mps 709 mmHg 61%
    17:00 +19°C° 0.2 mm 2 mps 709 mmHg 67%
    18:00 +18°C° 0.2 mm 2 mps 709 mmHg 73%
    19:00 +17°C° 0.2 mm 2 mps 709 mmHg 79%
    20:00 +16°C° 0.1 mm 1 mps 709 mmHg 83%
    21:00 +14°C° 0.1 mm 1 mps 709 mmHg 87%
    22:00 +13°C° 0.1 mm 1 mps 709 mmHg 91%
    23:00 +12°C° 0 mm 1 mps 709 mmHg 91%
    Show more